Tracking 19817 objects as of 19-Aug-2019
HD Live streaming from Space Station
objects crossing your sky now

COSMOS 2251 DEB

Track COSMOS 2251 DEB now!
10-day predictions


NORAD ID: 35441
Int'l Code: 1993-036AKK
Perigee: 733.9 km
Apogee: 808.1 km
Inclination: 74.1 °
Period: 100.1 minutes
Semi major axis: 7141 km
RCS: 0.0123 m2 (small)
Launch date: June 16, 1993
Source: Commonwealth of Independent States (former USSR) (CIS)
Launch site: PLESETSK MISSILE AND SPACE COMPLEX (PKMTR)

Note: This is SATELLITE DEBRIS
aabbcc
Your satellite tracking list
Your tracking list is empty




NASA's NSSDC Master Catalog

Two Line Element Set (TLE):
1 35441U 93036AKK 19230.40944942 +.00000361 +00000-0 +12474-3 0  9990
2 35441 074.1430 247.8516 0051913 056.0781 304.5294 14.38380340540973
Source of the keplerian elements: AFSPC